Theta_e
330 331 325 320 319 318 317 316 315 313 311 310 308 307 306 305 305 305 307 308 308 307 306 305 305 304 302 302 303 303 304 308 312 313 312 313 313 313 316 328 331 331 328
326 326 320 320 319 318 317 315 314 313 311 310 308 307 306 305 304 305 307 307 306 305 304 304 303 301 301 303 304 305 305 305 308 310 310 311 312 312 314 324 327 329 329
320 320 320 320 319 318 317 315 314 312 311 310 308 307 306 305 304 305 305 306 305 304 303 302 302 301 302 303 305 306 306 307 307 308 310 311 312 313 314 316 322 326 327
321 320 320 320 319 318 316 316 314 312 311 309 308 307 306 305 304 303 303 303 304 302 301 301 301 301 302 304 305 305 306 307 308 308 310 312 313 314 314 312 315 319 325
321 320 319 319 318 317 316 314 313 310 309 308 307 306 305 304 303 303 303 303 302 302 301 300 300 301 303 303 303 304 305 307 307 309 309 310 312 312 310 309 312 314 323
321 320 320 319 318 316 314 312 310 309 308 306 305 304 303 303 302 302 302 300 300 299 299 299 300 300 300 301 301 301 302 306 307 308 309 311 310 307 304 305 308 310 317
321 320 319 318 317 314 312 309 308 307 305 304 303 302 302 301 301 300 299 299 299 299 299 299 299 299 299 299 299 300 301 304 305 304 303 302 303 302 301 302 304 306 309
317 316 316 315 311 308 307 306 305 304 302 301 299 298 298 298 299 299 299 298 298 298 299 299 299 299 298 298 298 298 299 299 300 299 299 298 299 299 299 299 300 303 308
306 305 304 304 304 303 303 302 300 300 299 298 298 297 297 297 298 298 298 298 298 298 298 298 298 298 298 297 297 297 298 298 298 298 298 298 298 298 299 299 301 303 307
304 305 304 306 302 301 300 300 299 299 298 298 297 297 297 297 297 297 297 297 297 297 297 297 297 297 297 297 297 296 297 297 297 297 297 297 297 297 298 298 298 302 305
302 301 301 300 300 299 299 298 298 297 297 297 296 297 297 297 297 297 296 296 296 297 297 297 297 297 297 297 297 297 297 296 296 296 295 295 296 297 298 299 299 299 303
298 297 297 297 297 297 297 297 296 296 296 296 296 296 297 297 297 296 296 296 296 296 297 297 297 297 297 296 296 295 296 297 296 295 294 295 295 296 298 299 299 300 301
297 297 297 297 297 296 296 296 295 295 296 295 296 296 296 295 295 295 295 296 296 296 296 296 296 297 296 296 295 295 295 295 295 294 294 294 295 296 298 299 300 300 300
295 295 294 294 294 294 294 294 294 294 294 294 294 294 295 295 295 295 294 294 294 294 295 295 295 295 295 296 296 295 295 295 295 294 294 294 295 296 298 299 299 300 302
294 293 293 293 293 293 292 292 292 292 292 292 292 292 292 292 292 291 290 290 290 290 290 291 292 294 295 295 295 295 295 294 294 294 294 294 294 296 299 300 300 301 304
293 293 293 293 292 292 292 292 292 292 291 291 290 290 289 289 289 289 289 289 288 288 288 289 290 292 293 294 295 295 295 295 295 294 294 294 294 296 300 301 301 301 303
293 293 293 293 293 292 292 292 292 291 291 291 290 290 289 289 288 288 288 287 287 288 288 289 290 291 292 293 294 294 295 295 295 294 294 294 295 296 297 299 301 302 303
293 292 291 291 292 293 292 291 291 291 291 291 290 289 289 289 288 288 288 287 288 288 288 289 290 291 292 292 293 294 294 294 295 295 294 294 295 296 297 299 300 302 304
293 292 289 289 289 291 291 291 291 291 291 291 290 289 289 288 288 288 288 288 288 288 288 289 288 289 289 290 292 293 293 294 295 295 295 295 296 297 298 300 300 300 303
292 291 290 288 288 288 289 290 290 290 290 290 290 289 288 288 288 288 288 288 287 287 287 287 287 288 289 289 290 292 293 294 294 295 295 296 296 297 298 299 299 300 301
291 291 289 287 287 287 287 287 288 289 289 289 289 288 288 288 288 288 287 287 287 287 286 286 287 287 288 289 290 290 293 293 294 294 295 296 297 297 298 299 300 300 300
291 291 289 286 286 286 285 285 286 286 287 288 288 288 287 287 287 287 287 287 286 286 286 286 286 286 287 287 288 290 292 292 294 295 295 296 297 297 297 298 299 299 300
290 290 288 285 285 285 284 284 284 284 285 286 287 287 286 286 286 286 286 286 286 286 285 285 285 286 286 287 287 288 289 292 293 293 295 295 296 297 297 297 298 299 300
288 289 288 285 284 284 284 284 283 283 283 285 285 285 285 285 285 285 285 285 285 285 285 285 285 285 286 286 287 287 288 290 292 293 293 293 294 296 297 298 298 299 300
287 288 287 285 284 283 283 283 282 282 282 283 284 284 284 284 284 285 285 285 284 284 284 284 285 285 285 286 287 287 288 289 291 292 292 293 294 294 296 298 299 300 300
286 286 285 284 283 283 282 282 282 281 281 282 283 283 283 283 283 284 284 284 283 283 284 284 285 285 286 287 289 288 288 289 291 291 291 292 293 294 296 296 298 298 299
Wind_Speed
27 32 36 34 27 27 26 24 21 17 13 10 9 9 8 7 7 7 6 4 3 4 5 8 12 16 18 17 13 12 11 9 6 11 21 27 27 30 30 21 13 10 6
29 30 30 31 29 29 25 22 19 16 12 8 7 7 7 7 7 6 4 3 3 4 6 9 14 17 17 13 12 11 12 12 9 14 18 22 25 24 26 22 18 12 6
27 31 31 29 31 28 26 23 17 15 12 9 6 5 5 5 6 6 5 4 4 5 7 10 14 17 17 15 14 13 12 11 12 10 12 18 19 19 23 21 19 17 12
38 37 35 35 32 30 26 22 18 14 12 10 8 5 4 4 4 5 6 6 6 7 10 12 14 13 14 17 15 16 13 12 12 12 11 12 15 17 14 22 25 19 16
37 32 31 33 32 29 24 20 17 14 13 10 7 4 3 2 3 4 2 4 7 10 12 11 10 10 10 10 12 13 15 13 12 9 9 7 9 11 13 16 12 24 16
27 30 32 34 29 24 20 17 16 15 12 10 7 3 2 2 2 1 5 9 12 14 16 12 10 8 10 10 11 11 12 11 10 7 6 5 8 7 16 16 13 11 6
21 23 24 26 26 23 20 18 15 13 11 7 2 2 2 2 2 4 7 8 11 11 11 10 12 13 14 15 14 13 12 8 5 6 6 7 8 12 15 14 14 11 10
19 20 22 26 23 19 19 15 12 7 3 2 1 5 7 6 3 5 6 9 12 12 12 12 14 11 14 16 20 20 16 10 9 9 10 12 11 15 14 13 15 17 18
23 22 20 24 23 14 14 10 4 6 4 4 4 6 6 7 5 7 7 10 12 13 11 12 13 13 15 15 17 20 19 16 15 18 18 20 20 20 17 17 11 10 8
24 25 19 19 14 12 10 7 5 4 4 9 8 7 8 9 8 7 10 12 16 16 14 13 12 14 16 15 16 16 17 17 23 26 26 27 27 23 18 16 13 9 8
24 19 22 16 16 9 7 5 5 8 10 9 10 10 11 11 11 11 12 15 16 16 16 16 15 17 16 16 14 17 19 20 21 23 23 24 26 20 15 13 12 14 12
23 21 18 13 15 10 9 7 6 8 11 11 12 13 12 11 12 13 15 15 18 18 17 18 19 16 16 20 20 21 23 23 21 20 19 22 17 15 13 14 12 13 14
23 20 16 14 9 9 8 10 10 8 8 11 11 12 16 15 16 17 17 17 16 16 15 18 18 20 22 22 22 22 23 22 21 19 20 18 17 16 17 15 14 14 15
18 16 14 10 9 6 7 7 8 10 12 11 13 15 16 16 17 16 11 15 17 16 15 17 18 21 23 25 27 27 25 23 21 19 19 18 17 16 13 13 13 14 12
16 15 16 15 12 12 13 11 13 11 12 14 12 13 13 15 13 21 22 20 18 18 20 21 19 19 19 20 20 20 21 21 21 20 18 15 16 15 13 11 11 11 7
20 15 14 12 12 12 11 12 13 13 13 14 13 14 16 16 18 21 22 19 18 17 16 14 16 18 18 18 17 16 17 19 18 17 16 14 14 15 12 11 10 10 9
17 17 16 13 13 15 14 12 13 14 14 14 17 16 15 15 17 18 20 18 17 13 11 12 14 16 17 16 15 16 16 17 16 15 14 13 13 14 12 11 12 8 8
15 14 15 14 11 10 14 13 14 14 16 16 14 17 16 18 16 17 14 15 11 9 10 12 14 15 15 15 15 15 15 15 14 14 13 14 14 14 12 11 10 8 6
15 17 18 16 16 14 12 14 15 15 16 18 20 18 17 21 17 13 13 11 12 13 14 15 16 17 16 17 16 15 14 15 14 13 13 14 13 12 12 12 9 9 7
16 15 18 19 20 20 17 14 15 17 18 18 20 19 20 21 15 14 13 13 13 13 14 15 16 16 14 16 17 14 15 15 14 14 14 14 14 12 10 10 10 8 9
19 20 21 21 21 20 19 16 17 18 18 19 20 19 22 21 17 17 18 16 15 16 15 15 16 17 14 14 14 16 16 14 13 12 13 12 12 12 11 10 9 8 10
21 20 23 21 19 19 18 16 14 15 17 19 21 21 22 19 18 18 19 19 19 20 18 16 18 19 16 17 17 16 16 12 13 13 13 12 12 10 9 9 9 9 9
18 15 18 19 18 18 19 18 17 16 18 19 21 22 22 20 21 20 21 23 23 23 20 19 17 18 17 17 15 17 18 13 11 11 10 10 8 10 10 10 9 8 8
19 16 19 21 21 21 20 21 22 21 20 21 21 22 23 23 23 23 24 25 24 24 22 20 19 19 18 18 17 18 17 15 13 12 12 10 11 10 11 11 10 9 8
20 19 20 22 23 24 24 24 25 25 23 23 23 23 24 24 24 24 25 25 25 24 24 23 21 19 17 17 17 17 16 18 14 14 13 13 11 12 9 9 10 7 6
22 21 22 23 25 25 26 26 27 27 26 26 25 24 24 25 25 26 26 26 26 27 25 22 20 19 17 17 15 14 15 19 11 15 14 13 12 13 11 12 8 7 7
Wind_Direction
161 168 162 160 161 161 162 158 152 146 140 134 117 99 78 52 37 34 49 69 72 58 30 4 347 340 334 329 325 323 314 311 281 296 312 322 335 350 351 348 340 322 322
170 170 168 163 169 168 169 164 158 154 147 135 110 90 67 42 21 31 51 46 6 356 356 346 339 336 330 325 325 325 316 307 295 302 313 319 326 342 346 354 349 337 292
177 175 178 170 179 177 175 169 165 158 150 143 134 104 69 47 30 11 342 326 322 324 333 339 335 334 327 324 322 323 322 319 307 295 305 316 321 338 344 347 0 344 323
182 188 181 188 186 185 180 173 169 167 164 161 159 140 100 57 20 347 324 317 315 322 330 332 327 326 322 320 319 319 314 315 316 319 316 322 335 344 356 5 352 353 327
186 187 190 193 191 190 178 171 169 166 160 158 164 148 122 103 337 317 291 292 298 304 310 324 326 328 320 322 324 333 324 306 305 314 316 319 341 355 9 353 345 355 341
185 187 192 195 192 184 171 169 166 162 161 166 163 158 269 333 352 243 310 310 312 309 306 305 317 320 330 335 342 346 341 316 300 304 308 332 1 16 357 352 351 359 338
180 185 194 188 179 171 168 168 164 155 153 149 139 293 306 321 205 273 309 311 317 309 309 294 314 324 337 336 336 336 339 350 5 26 28 12 343 351 343 345 343 334 311
157 163 172 167 157 154 151 140 132 120 95 95 312 318 343 322 297 282 289 312 307 302 300 299 298 302 307 327 329 322 326 337 325 333 342 337 331 327 328 323 323 323 317
89 94 94 120 116 107 100 64 55 56 5 335 326 349 352 343 335 328 300 312 313 315 312 303 304 297 297 310 313 314 315 320 310 318 322 322 319 315 313 316 305 326 315
82 99 100 99 71 81 61 53 345 20 1 327 332 328 332 335 338 337 333 320 314 302 294 296 292 296 297 296 294 295 297 309 316 310 314 314 314 309 295 292 289 258 264
89 79 74 60 79 37 70 79 355 341 326 322 321 310 309 315 314 318 316 308 307 309 304 288 282 285 280 288 294 288 286 296 298 303 308 310 308 307 300 293 286 252 238
83 77 66 50 48 41 354 19 344 340 324 308 301 310 312 318 313 311 303 302 297 302 294 287 293 282 279 289 290 293 291 289 287 293 299 301 300 299 302 301 295 270 252
86 79 72 62 41 23 356 347 328 329 329 330 324 318 315 316 317 319 320 312 301 296 294 296 291 283 287 281 278 286 290 282 283 284 290 293 296 296 301 300 300 287 271
70 81 75 73 52 18 29 356 354 352 347 344 339 331 324 323 327 326 314 299 291 292 298 295 288 284 281 279 280 278 278 277 272 273 280 287 294 297 295 297 299 303 298
76 56 55 50 31 28 20 354 357 353 350 348 338 329 332 333 321 312 311 302 300 298 296 291 284 277 271 267 266 266 274 273 263 264 265 275 283 286 288 281 289 293 273
60 49 42 39 22 16 5 356 359 350 340 334 335 327 320 312 312 306 303 307 305 303 298 290 285 275 271 269 262 259 256 259 259 261 265 265 275 271 287 287 279 276 272
46 33 24 14 6 2 356 343 327 336 337 332 334 322 315 303 304 311 316 314 308 310 289 289 291 283 272 275 272 266 260 260 262 258 257 262 263 262 273 281 292 280 272
42 31 24 19 3 341 349 340 337 334 329 325 320 321 319 320 330 325 322 321 318 319 307 302 296 305 296 283 284 272 268 268 265 256 254 254 255 257 262 264 279 298 275
28 22 17 15 14 5 356 348 337 326 316 317 326 326 329 327 332 329 329 316 322 321 313 302 305 304 307 298 288 288 274 271 264 259 254 252 252 253 254 254 259 283 292
24 17 13 13 12 8 5 347 338 328 326 324 319 319 324 328 329 330 327 324 320 314 312 305 307 300 299 298 292 284 289 266 266 257 258 257 252 257 258 256 262 264 276
15 14 12 10 9 4 0 351 333 322 318 314 309 317 328 326 322 326 326 326 318 315 309 308 302 299 293 293 288 285 276 278 257 260 257 254 247 252 251 251 260 262 269
7 7 8 4 359 357 353 348 334 325 314 315 318 326 332 330 328 326 325 323 318 318 315 306 303 297 287 288 285 287 274 266 273 251 252 248 240 246 256 255 259 264 270
7 6 4 4 1 358 355 351 343 335 327 323 325 329 334 333 330 327 324 322 323 322 320 312 300 295 288 282 280 271 274 265 256 261 237 233 252 240 242 253 247 261 258
6 6 3 3 2 358 355 346 347 344 338 332 330 330 332 329 326 325 325 325 323 320 320 316 304 294 286 284 283 273 258 264 252 248 243 245 242 256 240 242 248 250 245
8 6 3 2 1 359 354 352 348 346 341 337 332 331 329 329 326 324 324 324 322 320 318 314 310 300 293 290 280 272 263 244 242 239 237 235 239 251 242 247 241 230 242
9 6 3 2 2 1 357 351 348 346 341 338 334 330 328 327 325 324 324 323 321 318 316 315 313 304 296 291 283 267 250 231 242 231 231 233 235 241 238 252 242 248 258